Regional Weather Roundup
Issued by NWS

Home | Current Version | Previous Version | Graphics & Text | Print | Product List | Glossary On
Versions: 1 2 3 4 5 6 7 8 9 10 11 12 13 14 15 16 17 18 19 20 21 22 23 24 25 26 27 28 29 30 31 32 33 34 35 36 37 38 39 40 41 42 43 44 45 46 47 48 49 50
000
ASUS43 KMPX 301110
RWRMN
WEATHER ROUNDUP FOR MINNESOTA
NATIONAL WEATHER SERVICE TWIN CITIES/CHANHASSEN MN
600 AM CDT MON MAR 30 2015


NOTE: "FAIR" INDICATES FEW OR NO CLOUDS BELOW 12,000 FEET WITH NO
SIGNIFICANT WEATHER AND/OR OBSTRUCTIONS TO VISIBILITY. N/A MEANS
CURRENT SKY AND/OR WEATHER CONDITIONS ARE NOT AVAILABLE.

MNZ060>063-068>070-301200-
   Twin Cities Metro

CITY           SKY/WX    TMP DP  RH WIND       PRES   REMARKS
TWIN CITIES    PTCLDY    37  28  70 SW3       29.96R
ST PAUL        CLEAR     37  27  67 W3        29.96R
CRYSTAL        CLEAR     37  27  67 W6        29.94R
BLAINE         CLEAR     36  28  75 CALM      29.95R
LAKEVILLE      CLEAR     34  27  75 CALM      29.96S
EDEN PRAIRIE   CLEAR     34  27  75 SW5       29.95R WCI  30
SOUTH ST PAUL  CLEAR     38  27  65 CALM      29.95S
LAKE ELMO      FAIR      36  30  80 CALM      29.95S
$$
MNZ001>005-007-008-013>017-022>024-027-028-301200-
   Northwest Minnesota

CITY           SKY/WX    TMP DP  RH WIND       PRES   REMARKS
BEMIDJI        MOCLDY    29  25  86 CALM      29.90R
HALLOCK        CLOUDY    34  30  86 S6        29.87F WCI  29
ROSEAU         PTCLDY    30  27  86 CALM      29.87S
WARROAD        CLEAR     30  27  86 SW5       29.88R WCI  25
THIEF RVR FALL CLOUDY    32  28  86 CALM      29.90S
CROOKSTON      CLOUDY    34  30  86 SE3       29.91S
FOSSTON        CLOUDY    28  27  93 CALM      29.90F
DETROIT LAKES  MOCLDY    34  30  86 CALM      29.92S
MOORHEAD       CLOUDY    36  34  93 SE5       29.91F
PARK RAPIDS    MOCLDY    35  28  75 CALM      29.90R
MAHNOMEN       CLOUDY    32  30  90 S5        29.90F WCI  28
$$
MNZ006-009>011-018-025>026-301200-
   North Central Minnesota

CITY           SKY/WX    TMP DP  RH WIND       PRES   REMARKS
BAUDETTE       CLEAR     27  23  85 CALM      29.86R
FLAG ISLAND    CLEAR     28  25  86 CALM      29.86R
INTL FALLS     CLEAR     25  20  81 CALM      29.87R
WASKISH        CLEAR     28  27  93 CALM      29.89R
BIG FORK       CLEAR     27  25  93 CALM      29.89R
LONGVILLE      PTCLDY    27  25  93 CALM      29.91R
GRAND RAPIDS   CLEAR     30  23  74 CALM      29.89R
CRANE LAKE     FAIR      25  23  93 CALM      29.88R
ORR            CLEAR     27  23  86 CALM      29.85R
COOK           CLEAR     27  23  86 CALM      29.88R
WALKER         FAIR      31  26  81 CALM      29.90R
$$
MNZ012-019>021-037-301200-
   Northeast Minnesota

CITY           SKY/WX    TMP DP  RH WIND       PRES   REMARKS
DULUTH         CLEAR     35  25  66 W10       29.87R WCI  27
ELY            CLEAR     28  23  80 CALM      29.85R
HIBBING        CLEAR     24  21  88 CALM      29.88R
EVELETH        CLEAR     32  27  80 W3        29.88R
DULUTH HARBOR  CLEAR     34  27  75 CALM      29.91R
TWO HARBORS    CLEAR     37  27  65 NW9G17    29.83R
SILVER BAY     CLEAR     36  25  64 W9        29.81R
GRAND MARAIS     N/A     35  26  69 VRB5      29.81R WCI  31
G MARAIS ARPRT CLEAR     28  21  74 NW15G22   29.76R WCI  17
$$
MNZ029>031-032-039>041-046>048-054>057-064-301200-
   West Central Minnesota

CITY           SKY/WX    TMP DP  RH WIND       PRES   REMARKS
FERGUS FALLS   CLOUDY    32  28  86 S3        29.95S
WHEATON        CLOUDY    36  27  69 SW3       29.94F
MORRIS         MOCLDY    34  27  75 CALM      29.93F
ALEXANDRIA     CLOUDY    33  27  78 SW5       29.94R WCI  29
ELBOW LAKE     FAIR      31  27  83 SE3       29.93S
WADENA         CLOUDY    34  27  75 CALM      29.91F
GLENWOOD       PTCLDY    32  27  80 SW3       29.95S
APPLETON       MOCLDY    34  27  75 SW3       29.95F
BENSON         PTCLDY    34  27  75 CALM      29.95F
ORTONVILLE     CLOUDY    39  25  56 CALM      29.93F
MADISON        CLOUDY    41  27  56 SW3       29.95F
WILLMAR        FAIR      32  27  80 CALM      29.98R
$$
MNZ033>034-036-042>043-049>051-058-059-301200-
   Central Minnesota

CITY           SKY/WX    TMP DP  RH WIND       PRES   REMARKS
ST CLOUD       PTCLDY    29  25  85 CALM      29.94R
SAUK CENTRE    CLOUDY    33  28  83 W5        29.94F WCI  28
PAYNESVILLE    CLEAR     28  26  91 SW7       29.96R WCI  21
AITKIN         PTCLDY    34  27  75 W6        29.90R WCI  29
PINE RIVER     PTCLDY    27  25  93 CALM      29.95R
BRAINERD       PTCLDY    29  24  82 S3        29.93R
STAPLES        CLOUDY    32  27  80 W3        29.92F
LONG PRAIRIE   CLOUDY    32  28  86 CALM      29.93F
LITTLE FALLS   MOCLDY    30  27  86 CALM      29.94R
LITCHFIELD     CLEAR     37  28  70 CALM      29.97R
BUFFALO        CLEAR     34  27  75 CALM      29.96S
MAPLE LAKE     CLEAR     35  29  79 SW7       29.97R WCI  29
$$
MNZ037-044-045-052-053-301200-
   East Central Minnesota

CITY           SKY/WX    TMP DP  RH WIND       PRES   REMARKS
PRINCETON      PTCLDY    30  27  86 CALM      29.95R
MORA           PTCLDY    28  23  80 CALM      29.95R
CAMBRIDGE      PTCLDY    34  25  69 CALM      29.92R
RUSH CITY      PTCLDY    33  26  76 CALM      29.93R
MOOSE LAKE     CLEAR     30  25  80 CALM      29.89R
HINCKLEY       FAIR      30  27  86 CALM      29.92R
CLOQUET        CLEAR     32  25  74 W7        29.88S WCI  26
MCGREGOR       CLEAR     30  27  86 CALM      29.91R
$$
MNZ071>073-080-081-089-090-097-098-301200-
   Southwest Minnesota

CITY           SKY/WX    TMP DP  RH WIND       PRES   REMARKS
MONTEVIDEO     MOCLDY    37  27  65 CALM      29.97F
GRANITE FALLS  CLOUDY    36  26  67 SW5       29.98S
CANBY          CLOUDY    46  26  46 SW9       29.97S
MARSHALL       CLOUDY    45  21  39 W7        29.98S
REDWOOD FALLS  MOCLDY    40  25  55 W9        29.98R
OLIVIA         MOCLDY    32  28  86 CALM      29.97R
PIPESTONE      CLOUDY    36  23  60 SW3       29.99F
WINDOM         PTCLDY    36  23  60 SW5       30.01R
WORTHINGTON    CLOUDY    37  21  52 SW9       30.03R
JACKSON        PTCLDY    37  23  56 SW7       30.02R
TRACY          CLOUDY    44  25  47 SW12      29.99R
SLAYTON        CLOUDY    41  21  44 CALM      30.01R
$$
MNZ065>067-074>077-082>085-091>093-301200-
   South Central Minnesota

CITY           SKY/WX    TMP DP  RH WIND       PRES   REMARKS
MANKATO        CLEAR     37  25  60 W10       29.98R
NEW ULM        PTCLDY    36  23  60 SW7       29.98R
ST JAMES       PTCLDY    37  25  60 SW9       30.00R
FAIRMONT       PTCLDY    39  21  48 SW15      30.00R
GLENCOE        CLEAR     34  31  86 CALM      29.97R
FARIBAULT      CLEAR     34  27  75 S3        29.98R
OWATONNA       CLEAR     36  27  69 SW9       29.98R
WASECA         CLEAR     32  27  80 SW6       30.00R WCI  26
ALBERT LEA     CLEAR     39  27  60 SW8       29.99R
$$
MNZ078>079-086>088-094>096-301200-
   Southeast Minnesota

CITY           SKY/WX    TMP DP  RH WIND       PRES   REMARKS
ROCHESTER      CLEAR     35  27  72 W9        29.97S WCI  28
RED WING       CLEAR     30  27  86 CALM      29.96R
STANTON        CLEAR     33  27  79 SW6       29.96R WCI  27
DODGE CENTER   PTCLDY    34  28  80 SW9       29.97R WCI  26
WINONA         CLEAR     32  30  93 CALM      29.98S
AUSTIN         CLEAR     37  27  65 SW9       29.98S
PRESTON        CLEAR     33  26  76 SW7       29.99R WCI  27
$$
ABBREVIATIONS USED IN REMARKS
   TC - TEMPERATURES IN CELSIUS
  WCI - WIND CHILL INDEX
   HX - HEAT INDEX
  VSB - VISIBILITY
$$


USA.gov is the U.S. government's official web portal to all federal, state and local government web resources and services.